AirNav   Everest Fuels
 
 1220 users online  

0CT6 Middletown Heliport
Middletown, Connecticut, USA

GOING TO MIDDLETOWN?


FAA INFORMATION EFFECTIVE 21 MAY 2020

Location

FAA Identifier: 0CT6
Lat/Long: 41-35-48.3560N 072-42-16.3410W
41-35.805933N 072-42.272350W
41.5967656,-72.7045392
(estimated)
Elevation: 113 ft. / 34 m (estimated)
Variation: 14W (1985)
From city: 1 mile NE of MIDDLETOWN, CT
Time zone: UTC -4 (UTC -5 during Standard Time)
Zip code: 06457

Heliport Operations

Heliport use: Private use. Permission required prior to landing
Activation date: 12/1987
Control tower: no
ARTCC: BOSTON CENTER
FSS: BRIDGEPORT FLIGHT SERVICE STATION
Attendance: UNATNDD
FOR ATTENDANT PPR; CALL 203-627-3060.
Wind indicator: lighted
Segmented circle: no
Lights: DUSK-2200

Heliport Communications

WX ASOS at MMK (8 nm SW): 134.925 (203-639-9405)
WX AWOS-AV at CT71 (8 nm NW): 129.825
WX ASOS at HFD (9 nm N): PHONE 860-527-5837
WX AWOS-3 at SNC (16 nm SE): 118.325 (860-526-1551)
  • MULTICOM 129.57

Nearby radio navigation aids

VOR radial/distance  VOR name  Freq  Var
HFDr262/7.5HARTFORD VOR/DME114.9013W
MADr011/17.0MADISON VOR/DME110.4013W
ORWr288/31.7NORWICH VOR/DME110.0014W
BDRr048/32.3BRIDGEPORT VOR/DME108.8012W
GONr313/33.4GROTON VOR/DME110.8514W
BAFr193/33.9BARNES VORTAC113.0014W

Heliport Services

Runway Information

Helipad H1

Dimensions: 65 x 65 ft. / 20 x 20 m
Surface: asphalt
Runway edge lights: PERI
Latitude: 41-35.805933N
Longitude: 072-42.272350W
Elevation: 113.0 ft.
Traffic pattern: leftleft

Heliport Ownership and Management from official FAA records

Ownership: Privately-owned
Owner: AETNA LIFE & CASUALTY
HGR 85-176 BRADLEY INTL ARPT
WINDSOR LOCKS, CT 06096
Phone 203-627-3060
Manager: GAIL GERAGHTY
HGR 85-176 BRADLEY INTL ARPT
WINDSOR LOCKS, CT 06096
Phone 203-627-3060

Additional Remarks

FOR CD CTC YANKEE APCH AT 860-386-3597

Instrument Procedures

There are no published instrument procedures at 0CT6.

Some nearby airports with instrument procedures:

KMMK - Meriden Markham Municipal Airport (8 nm SW)
KHFD - Hartford-Brainard Airport (9 nm N)
4B8 - Robertson Field Airport (9 nm NW)
KSNC - Chester Airport (16 nm SE)
KBDL - Bradley International Airport (21 nm N)
 
Loc | Ops | Rwys | IFR | FBO | Links
Com | Nav | Svcs | Stats | Notes

Silver City Flying Club
 
Area around 0CT6 (Middletown Heliport)
 
Road maps at: MapQuest Bing Google
 
Aerial photo
No photo
 
Sectional chart

 
Airport distance calculator
Flying to Middletown Heliport? Find the distance to fly.

From to 0CT6

Sunrise and sunset
Times for 01-Jun-2020
 Local
(UTC-4)
 Zulu
(UTC)
Morning civil twilight04:4608:46
Sunrise05:2009:20
Sunset20:1800:18
Evening civil twilight20:5100:51

Current date and time
Zulu (UTC)  01-Jun-2020 21:50:05
Local (UTC-4)  01-Jun-2020 17:50:05
 
METAR
KMMK 
8nm SW 
012053Z AUTO 34009G16KT 10SM BKN075 BKN090 19/01 A3007 RMK AO2 SLP182 T01890011 56021
KHFD 
9nm N 
012053Z 34010KT 10SM BKN085 BKN110 19/00 A3007 RMK AO2 SLP181 T01890000 56019
KSNC 
16nm SE 
012115Z AUTO 30006G12KT 10SM SCT070 SCT080 SCT090 19/01 A3008 RMK AO2
TAF
KBDL 
20nm N 
011734Z 0118/0224 31010G21KT P6SM BKN070 FM012300 29005KT P6SM BKN060 FM021500 25006KT P6SM BKN060
NOTAMs
Click for the latest NOTAMs
NOTAMs are issued by the DoD/FAA and will open in a separate window not controlled by AirNav.

 

 
 

Would you like to see your business listed on this page?

 If your business provides an interesting product or service to pilots, flight crews, aircraft, or users of the Middletown Heliport, you should consider listing it here.  To start the listing process, click on the button below
 
Add a business
 

Other Pages about Middletown Heliport

Update a link
 
Copyright © AirNav, LLC. All rights reserved. Privacy Policy  Contact